Portada
METAR-TAF:

METAR-TAF

Aeropuertos :

Riohacha, Colombia

Aeropuerto Almirante Padilla

latitud: 11-32N, longitud: 072-56W, altitud: 4 m

Observación

El informe se hizo hace 24 minutos, a las 22:00 UTC
Viento 10 kt del sureste
Temperatura 33°C
Humedad 46%
Presión 1007 hPa
Visibilidad 10 km o más
Escasas nubes a una altura de 1500 ft
Cielo nuboso a una altura de 20000 ft

METAR: SKRH 212200Z 13010KT 9999 FEW015 BKN200 33/20 A2974

Hora: 17:24 (22:24 UTC)


TAF: falta

Observaciones y pronósticos meteorológicos de más de 4000 aeropuertos (mensajes METAR y TAF).

Los puntos amarillos y rojos representan las estaciones disponibles.

Ponga el ratón en el punto deseado para ver el nombre de la estación.

Haga clic para ver las observaciones y los pronósticos meteorológicos.

Para cambiar el mapa : haga clic en los botones verdes con una cruz de color negro para hacer un zoom, en el botón verde con un guión para alejar o en las flechas verdes para mapas adyacentes.


METAR-TAF: